| time (UTC) | temp F | wind direction | speed MPH | gust MPH | rain 1hr in | rain 24hr in | rain mn in | humidity % | barometer mb |
| 20260507191513 | 59 | 284 | 13.0 | 19.0 | 0.00 | 0.00 | 0.00 | 47 | 1015.1 |
| 20260507191021 | 59 | 291 | 13.0 | 19.0 | 0.00 | 0.00 | 0.00 | 52 | 1015.1 |
| 20260507190522 | 58 | 274 | 13.0 | 19.0 | 0.00 | 0.00 | 0.00 | 52 | 1015.2 |
| 20260507190031 | 58 | 300 | 12.0 | 21.0 | 0.00 | 0.00 | 0.00 | 49 | 1015.2 |
| 20260507185532 | 57 | 286 | 12.0 | 21.0 | 0.00 | 0.00 | 0.00 | 53 | 1015.3 |
| 20260507185059 | 57 | 295 | 12.0 | 19.0 | 0.00 | 0.00 | 0.00 | 52 | 1015.3 |
| 20260507184518 | 56 | 283 | 13.0 | 21.0 | 0.00 | 0.00 | 0.00 | 53 | 1015.4 |
| 20260507184020 | 55 | 305 | 14.0 | 21.0 | 0.00 | 0.00 | 0.00 | 52 | 1015.4 |
| 20260507183548 | 56 | 290 | 14.0 | 21.0 | 0.00 | 0.00 | 0.00 | 54 | 1015.4 |
| 20260507183028 | 55 | 290 | 11.0 | 18.0 | 0.00 | 0.00 | 0.00 | 58 | 1015.5 |
| 20260507182534 | 55 | 286 | 14.0 | 18.0 | 0.00 | 0.00 | 0.00 | 55 | 1015.5 |
| 20260507182015 | 54 | 273 | 11.0 | 16.0 | 0.00 | 0.00 | 0.00 | 58 | 1015.6 |
| 20260507181515 | 54 | 268 | 8.0 | 14.0 | 0.00 | 0.00 | 0.00 | 58 | 1015.8 |
| 20260507181043 | 53 | 282 | 9.0 | 15.0 | 0.00 | 0.00 | 0.00 | 57 | 1015.8 |
| 20260507180522 | 53 | 274 | 10.0 | 15.0 | 0.00 | 0.00 | 0.00 | 58 | 1015.9 |
| 20260507180029 | 52 | 295 | 10.0 | 15.0 | 0.00 | 0.00 | 0.00 | 57 | 1015.9 |
| 20260507175525 | 52 | 298 | 10.0 | 14.0 | 0.00 | 0.01 | 0.00 | 57 | 1015.9 |
| 20260507175033 | 51 | 288 | 10.0 | 14.0 | 0.00 | 0.01 | 0.00 | 58 | 1016.0 |
| 20260507174515 | 51 | 291 | 10.0 | 14.0 | 0.00 | 0.01 | 0.00 | 58 | 1016.0 |
| 20260507174022 | 51 | 284 | 10.0 | 14.0 | 0.00 | 0.01 | 0.00 | 59 | 1016.0 |
| 20260507173522 | 50 | 288 | 10.0 | 13.0 | 0.00 | 0.01 | 0.00 | 61 | 1016.0 |
| 20260507173051 | 49 | 280 | 10.0 | 13.0 | 0.00 | 0.01 | 0.00 | 61 | 1015.9 |
| 20260507172537 | 49 | 300 | 10.0 | 12.0 | 0.00 | 0.01 | 0.00 | 62 | 1015.9 |
| 20260507172018 | 48 | 298 | 9.0 | 13.0 | 0.00 | 0.01 | 0.00 | 64 | 1015.8 |
| 20260507171518 | 47 | 295 | 10.0 | 14.0 | 0.00 | 0.01 | 0.00 | 64 | 1015.8 |
| 20260507171021 | 47 | 284 | 10.0 | 14.0 | 0.00 | 0.01 | 0.00 | 65 | 1015.8 |
| 20260507170529 | 46 | 288 | 9.0 | 15.0 | 0.00 | 0.01 | 0.00 | 65 | 1015.9 |
| 20260507170031 | 46 | 283 | 11.0 | 16.0 | 0.00 | 0.01 | 0.00 | 63 | 1015.9 |
| 20260507165540 | 47 | 286 | 12.0 | 17.0 | 0.00 | 0.05 | 0.00 | 62 | 1015.9 |
| 20260507165020 | 47 | 303 | 13.0 | 19.0 | 0.00 | 0.05 | 0.00 | 61 | 1016.1 |
| 20260507164529 | 47 | 303 | 13.0 | 19.0 | 0.00 | 0.05 | 0.00 | 61 | 1016.1 |
| 20260507164050 | 47 | 286 | 13.0 | 17.0 | 0.00 | 0.05 | 0.00 | 61 | 1016.0 |
| 20260507163538 | 48 | 286 | 10.0 | 15.0 | 0.00 | 0.05 | 0.00 | 60 | 1016.1 |
| 20260507163041 | 47 | 290 | 10.0 | 14.0 | 0.00 | 0.05 | 0.00 | 59 | 1016.0 |
| 20260507162528 | 47 | 310 | 10.0 | 13.0 | 0.00 | 0.05 | 0.00 | 62 | 1015.9 |
| 20260507162029 | 46 | 292 | 9.0 | 15.0 | 0.00 | 0.05 | 0.00 | 63 | 1015.9 |
| 20260507161534 | 46 | 301 | 10.0 | 15.0 | 0.00 | 0.05 | 0.00 | 62 | 1015.8 |
| 20260507161101 | 45 | 303 | 11.0 | 15.0 | 0.00 | 0.05 | 0.00 | 62 | 1015.8 |
| 20260507160521 | 45 | 295 | 11.0 | 15.0 | 0.00 | 0.05 | 0.00 | 63 | 1015.8 |
| 20260507160021 | 44 | 282 | 9.0 | 12.0 | 0.00 | 0.05 | 0.00 | 63 | 1015.9 |
| 20260507155529 | 45 | 290 | 9.0 | 12.0 | 0.00 | 0.07 | 0.00 | 63 | 1015.9 |
| 20260507155049 | 45 | 305 | 8.0 | 12.0 | 0.00 | 0.07 | 0.00 | 63 | 1016.1 |
| 20260507154537 | 45 | 293 | 8.0 | 13.0 | 0.00 | 0.07 | 0.00 | 62 | 1016.1 |
| 20260507154018 | 45 | 316 | 9.0 | 13.0 | 0.00 | 0.07 | 0.00 | 62 | 1016.3 |
| 20260507153520 | 45 | 324 | 10.0 | 15.0 | 0.00 | 0.07 | 0.00 | 62 | 1016.3 |
| 20260507153048 | 45 | 303 | 11.0 | 16.0 | 0.00 | 0.07 | 0.00 | 61 | 1016.3 |
| 20260507152528 | 46 | 311 | 12.0 | 18.0 | 0.00 | 0.07 | 0.00 | 60 | 1016.3 |
| 20260507152036 | 46 | 309 | 12.0 | 20.0 | 0.00 | 0.07 | 0.00 | 60 | 1016.4 |
| 20260507151516 | 46 | 311 | 14.0 | 23.0 | 0.00 | 0.07 | 0.00 | 60 | 1016.3 |
| 20260507151017 | 46 | 300 | 15.0 | 20.0 | 0.00 | 0.07 | 0.00 | 59 | 1016.2 |
| 20260507150524 | 45 | 320 | 15.0 | 19.0 | 0.00 | 0.07 | 0.00 | 62 | 1016.3 |
| 20260507150025 | 44 | 313 | 12.0 | 18.0 | 0.00 | 0.07 | 0.00 | 64 | 1016.3 |
| 20260507145533 | 44 | 318 | 13.0 | 22.0 | 0.00 | 0.08 | 0.00 | 62 | 1016.3 |
| 20260507145019 | 44 | 322 | 14.0 | 22.0 | 0.00 | 0.08 | 0.00 | 61 | 1016.3 |
| 20260507144521 | 44 | 321 | 14.0 | 19.0 | 0.00 | 0.08 | 0.00 | 63 | 1016.3 |
| 20260507144024 | 43 | 311 | 14.0 | 18.0 | 0.00 | 0.08 | 0.00 | 65 | 1016.3 |
| 20260507143525 | 43 | 320 | 12.0 | 18.0 | 0.00 | 0.08 | 0.00 | 63 | 1016.3 |
| 20260507143014 | 44 | 313 | 12.0 | 18.0 | 0.00 | 0.08 | 0.00 | 62 | 1016.2 |
| 20260507142516 | 44 | 304 | 12.0 | 19.0 | 0.00 | 0.08 | 0.00 | 62 | 1016.2 |
| 20260507142017 | 44 | 306 | 13.0 | 19.0 | 0.00 | 0.08 | 0.00 | 62 | 1016.1 |
| 20260507141523 | 44 | 304 | 13.0 | 20.0 | 0.00 | 0.08 | 0.00 | 62 | 1016.1 |
| 20260507141026 | 44 | 302 | 16.0 | 22.0 | 0.00 | 0.08 | 0.00 | 61 | 1016.0 |
| 20260507140534 | 44 | 298 | 16.0 | 23.0 | 0.00 | 0.08 | 0.00 | 60 | 1015.9 |
| 20260507140019 | 44 | 311 | 16.0 | 27.0 | 0.00 | 0.08 | 0.00 | 60 | 1015.7 |
| 20260507135520 | 44 | 301 | 20.0 | 31.0 | 0.00 | 0.08 | 0.00 | 60 | 1015.6 |
| 20260507135046 | 44 | 288 | 22.0 | 31.0 | 0.00 | 0.08 | 0.00 | 60 | 1015.2 |
| 20260507134533 | 43 | 292 | 21.0 | 29.0 | 0.00 | 0.08 | 0.00 | 61 | 1015.1 |
| 20260507134034 | 44 | 302 | 18.0 | 27.0 | 0.00 | 0.08 | 0.00 | 60 | 1015.2 |
| 20260507133522 | 43 | 298 | 19.0 | 25.0 | 0.00 | 0.08 | 0.00 | 60 | 1015.3 |
| 20260507133044 | 43 | 291 | 17.0 | 24.0 | 0.00 | 0.08 | 0.00 | 60 | 1015.3 |
| 20260507132529 | 43 | 290 | 18.0 | 24.0 | 0.00 | 0.08 | 0.00 | 61 | 1015.2 |
| 20260507132031 | 43 | 291 | 20.0 | 24.0 | 0.00 | 0.08 | 0.00 | 61 | 1015.1 |
| 20260507131539 | 43 | 297 | 19.0 | 25.0 | 0.00 | 0.08 | 0.00 | 62 | 1015.1 |
| 20260507131020 | 43 | 283 | 19.0 | 26.0 | 0.00 | 0.08 | 0.00 | 62 | 1015.1 |
| 20260507130523 | 43 | 297 | 19.0 | 26.0 | 0.00 | 0.08 | 0.00 | 62 | 1014.9 |
| 20260507130031 | 43 | 286 | 20.0 | 26.0 | 0.00 | 0.08 | 0.00 | 61 | 1014.9 |
| 20260507125512 | 43 | 292 | 20.0 | 25.0 | 0.00 | 0.08 | 0.00 | 61 | 1014.8 |
| 20260507125032 | 42 | 291 | 18.0 | 26.0 | 0.00 | 0.08 | 0.00 | 62 | 1014.8 |
| 20260507124513 | 42 | 307 | 19.0 | 26.0 | 0.00 | 0.08 | 0.00 | 62 | 1014.8 |
| 20260507124022 | 42 | 299 | 18.0 | 25.0 | 0.00 | 0.08 | 0.00 | 62 | 1014.9 |
| 20260507123529 | 42 | 313 | 16.0 | 22.0 | 0.00 | 0.08 | 0.00 | 62 | 1014.9 |
| 20260507123030 | 42 | 291 | 16.0 | 23.0 | 0.00 | 0.08 | 0.00 | 62 | 1015.0 |
| 20260507122538 | 42 | 305 | 16.0 | 23.0 | 0.00 | 0.08 | 0.00 | 63 | 1015.0 |
| 20260507122019 | 41 | 314 | 15.0 | 24.0 | 0.00 | 0.08 | 0.00 | 64 | 1014.8 |
| 20260507121528 | 41 | 291 | 17.0 | 24.0 | 0.00 | 0.08 | 0.00 | 64 | 1014.8 |
| 20260507121030 | 41 | 301 | 19.0 | 25.0 | 0.00 | 0.08 | 0.00 | 64 | 1014.8 |
| 20260507120539 | 41 | 305 | 18.0 | 25.0 | 0.00 | 0.08 | 0.00 | 64 | 1014.6 |
| 20260507120021 | 41 | 293 | 19.0 | 25.0 | 0.00 | 0.08 | 0.00 | 63 | 1014.6 |
| 20260507115524 | 41 | 305 | 19.0 | 23.0 | 0.00 | 0.08 | 0.00 | 64 | 1014.5 |
| 20260507115033 | 41 | 298 | 17.0 | 24.0 | 0.00 | 0.08 | 0.00 | 63 | 1014.5 |
| 20260507114531 | 41 | 290 | 19.0 | 26.0 | 0.00 | 0.08 | 0.00 | 63 | 1014.6 |
| 20260507114014 | 41 | 299 | 20.0 | 27.0 | 0.00 | 0.08 | 0.00 | 63 | 1014.5 |
| 20260507113522 | 41 | 305 | 20.0 | 27.0 | 0.00 | 0.08 | 0.00 | 63 | 1014.5 |
| 20260507113056 | 41 | 307 | 19.0 | 30.0 | 0.00 | 0.08 | 0.00 | 62 | 1014.4 |
| 20260507112516 | 41 | 307 | 20.0 | 30.0 | 0.00 | 0.08 | 0.00 | 62 | 1014.4 |
| 20260507112017 | 41 | 288 | 21.0 | 26.0 | 0.00 | 0.08 | 0.00 | 62 | 1014.2 |
| 20260507111546 | 41 | 297 | 19.0 | 26.0 | 0.00 | 0.08 | 0.00 | 62 | 1014.2 |
| 20260507111025 | 41 | 314 | 18.0 | 24.0 | 0.00 | 0.08 | 0.00 | 62 | 1014.4 |
| 20260507110533 | 41 | 309 | 16.0 | 26.0 | 0.00 | 0.08 | 0.00 | 62 | 1014.7 |
| 20260507110015 | 41 | 300 | 18.0 | 26.0 | 0.00 | 0.08 | 0.00 | 62 | 1014.5 |
| 20260507105515 | 41 | 307 | 19.0 | 27.0 | 0.00 | 0.08 | 0.00 | 62 | 1014.6 |
| 20260507105043 | 41 | 295 | 20.0 | 27.0 | 0.00 | 0.08 | 0.00 | 62 | 1014.5 |
| 20260507104524 | 41 | 305 | 20.0 | 26.0 | 0.00 | 0.08 | 0.00 | 62 | 1014.4 |
| 20260507104033 | 41 | 295 | 20.0 | 28.0 | 0.00 | 0.08 | 0.00 | 62 | 1014.4 |
| 20260507103518 | 41 | 298 | 22.0 | 28.0 | 0.00 | 0.08 | 0.00 | 62 | 1014.4 |
| 20260507103019 | 41 | 303 | 20.0 | 27.0 | 0.00 | 0.08 | 0.00 | 62 | 1014.5 |
| 20260507102547 | 41 | 303 | 20.0 | 25.0 | 0.00 | 0.08 | 0.00 | 63 | 1014.4 |
| 20260507102027 | 41 | 310 | 19.0 | 24.0 | 0.00 | 0.08 | 0.00 | 62 | 1014.4 |
| 20260507101539 | 41 | 295 | 18.0 | 24.0 | 0.00 | 0.08 | 0.00 | 62 | 1014.4 |
| 20260507101021 | 41 | 292 | 19.0 | 24.0 | 0.00 | 0.08 | 0.00 | 61 | 1014.4 |
| 20260507100522 | 41 | 288 | 19.0 | 27.0 | 0.00 | 0.08 | 0.00 | 60 | 1014.4 |
| 20260507100052 | 41 | 298 | 18.0 | 28.0 | 0.00 | 0.08 | 0.00 | 60 | 1014.4 |
| 20260507095538 | 42 | 300 | 19.0 | 28.0 | 0.00 | 0.08 | 0.00 | 59 | 1014.4 |
| 20260507095019 | 42 | 316 | 20.0 | 26.0 | 0.00 | 0.08 | 0.00 | 59 | 1014.4 |
| 20260507094519 | 41 | 303 | 19.0 | 26.0 | 0.00 | 0.08 | 0.00 | 60 | 1014.4 |
| 20260507094023 | 41 | 302 | 18.0 | 24.0 | 0.00 | 0.08 | 0.00 | 61 | 1014.5 |
| 20260507093534 | 41 | 303 | 17.0 | 26.0 | 0.00 | 0.08 | 0.00 | 61 | 1014.5 |
| 20260507093016 | 41 | 293 | 17.0 | 26.0 | 0.00 | 0.08 | 0.00 | 61 | 1014.7 |
| 20260507092519 | 41 | 299 | 19.0 | 25.0 | 0.00 | 0.08 | 0.00 | 61 | 1014.6 |
| 20260507092026 | 41 | 295 | 19.0 | 24.0 | 0.00 | 0.08 | 0.00 | 61 | 1014.7 |
| 20260507091528 | 41 | 309 | 18.0 | 24.0 | 0.00 | 0.08 | 0.00 | 61 | 1014.7 |
| 20260507091016 | 41 | 311 | 15.0 | 26.0 | 0.00 | 0.08 | 0.00 | 61 | 1014.8 |
| 20260507090523 | 41 | 293 | 18.0 | 26.0 | 0.00 | 0.08 | 0.00 | 61 | 1014.8 |
| 20260507090024 | 41 | 309 | 17.0 | 25.0 | 0.00 | 0.08 | 0.00 | 61 | 1014.8 |
| 20260507085533 | 41 | 312 | 18.0 | 25.0 | 0.00 | 0.08 | 0.00 | 60 | 1014.8 |
| 20260507085014 | 41 | 307 | 18.0 | 25.0 | 0.00 | 0.08 | 0.00 | 60 | 1014.8 |
| 20260507084517 | 41 | 312 | 18.0 | 30.0 | 0.00 | 0.08 | 0.00 | 60 | 1014.7 |
| 20260507084016 | 41 | 304 | 19.0 | 30.0 | 0.00 | 0.08 | 0.00 | 60 | 1014.6 |
| 20260507083526 | 41 | 300 | 18.0 | 25.0 | 0.00 | 0.08 | 0.00 | 60 | 1014.6 |
| 20260507083056 | 41 | 299 | 20.0 | 26.0 | 0.00 | 0.08 | 0.00 | 60 | 1014.6 |
| 20260507082536 | 41 | 309 | 19.0 | 27.0 | 0.00 | 0.08 | 0.00 | 60 | 1014.6 |
| 20260507082023 | 41 | 304 | 20.0 | 29.0 | 0.00 | 0.08 | 0.00 | 60 | 1014.6 |
| 20260507081523 | 41 | 298 | 20.0 | 29.0 | 0.00 | 0.08 | 0.00 | 59 | 1014.7 |
| 20260507081026 | 41 | 297 | 21.0 | 30.0 | 0.00 | 0.08 | 0.00 | 59 | 1014.6 |
| 20260507080535 | 41 | 297 | 19.0 | 30.0 | 0.00 | 0.08 | 0.00 | 59 | 1014.7 |
| 20260507080015 | 41 | 295 | 23.0 | 30.0 | 0.00 | 0.08 | 0.00 | 60 | 1014.7 |
| 20260507075517 | 41 | 307 | 22.0 | 30.0 | 0.00 | 0.08 | 0.00 | 60 | 1014.7 |
| 20260507075025 | 40 | 300 | 22.0 | 29.0 | 0.00 | 0.08 | 0.00 | 60 | 1014.6 |
| 20260507074526 | 40 | 282 | 22.0 | 32.0 | 0.00 | 0.08 | 0.00 | 61 | 1014.7 |
| 20260507074036 | 40 | 295 | 21.0 | 32.0 | 0.00 | 0.08 | 0.00 | 61 | 1014.7 |
| 20260507073517 | 40 | 290 | 20.0 | 27.0 | 0.00 | 0.08 | 0.00 | 60 | 1014.8 |
| 20260507073019 | 40 | 290 | 18.0 | 24.0 | 0.00 | 0.08 | 0.00 | 60 | 1014.8 |
| 20260507072520 | 40 | 295 | 17.0 | 26.0 | 0.00 | 0.08 | 0.00 | 60 | 1014.7 |
| 20260507072027 | 40 | 284 | 18.0 | 26.0 | 0.00 | 0.08 | 0.00 | 59 | 1014.9 |
| 20260507071528 | 40 | 286 | 20.0 | 26.0 | 0.00 | 0.08 | 0.00 | 60 | 1014.8 |
| 20260507071014 | 40 | 305 | 19.0 | 26.0 | 0.00 | 0.08 | 0.00 | 60 | 1015.0 |
| 20260507070523 | 40 | 299 | 18.0 | 27.0 | 0.00 | 0.08 | 0.00 | 61 | 1014.9 |
| 20260507070025 | 40 | 293 | 19.0 | 27.0 | 0.00 | 0.08 | 0.00 | 61 | 1015.0 |
| 20260507065532 | 39 | 309 | 18.0 | 24.0 | 0.00 | 0.08 | 0.00 | 61 | 1015.1 |
| 20260507065014 | 39 | 316 | 17.0 | 24.0 | 0.00 | 0.08 | 0.00 | 62 | 1015.2 |
| 20260507064516 | 39 | 291 | 18.0 | 24.0 | 0.00 | 0.08 | 0.00 | 63 | 1015.2 |
| 20260507064023 | 39 | 290 | 17.0 | 26.0 | 0.00 | 0.08 | 0.00 | 64 | 1015.4 |
| 20260507063525 | 39 | 290 | 19.0 | 26.0 | 0.00 | 0.08 | 0.00 | 65 | 1015.3 |
| 20260507063031 | 38 | 288 | 18.0 | 24.0 | 0.00 | 0.08 | 0.00 | 68 | 1015.3 |
| 20260507062512 | 36 | 290 | 12.0 | 16.0 | 0.00 | 0.08 | 0.00 | 71 | 1015.4 |
| 20260507062013 | 35 | 284 | 10.0 | 16.0 | 0.00 | 0.08 | 0.00 | 70 | 1015.6 |
| 20260507061521 | 36 | 297 | 10.0 | 16.0 | 0.00 | 0.08 | 0.00 | 68 | 1015.8 |
| 20260507061045 | 37 | 316 | 10.0 | 16.0 | 0.00 | 0.08 | 0.00 | 67 | 1015.8 |
| 20260507060524 | 37 | 283 | 12.0 | 18.0 | 0.00 | 0.08 | 0.00 | 68 | 1015.9 |
| 20260507060032 | 37 | 274 | 11.0 | 18.0 | 0.00 | 0.08 | 0.00 | 69 | 1015.8 |
| 20260507055525 | 37 | 273 | 12.0 | 18.0 | 0.00 | 0.08 | 0.00 | 68 | 1015.9 |
| 20260507055027 | 37 | 272 | 11.0 | 21.0 | 0.00 | 0.08 | 0.00 | 70 | 1016.0 |
| 20260507054518 | 37 | 268 | 14.0 | 21.0 | 0.00 | 0.08 | 0.00 | 72 | 1016.0 |
| 20260507054101 | 36 | 284 | 15.0 | 19.0 | 0.00 | 0.08 | 0.00 | 76 | 1016.0 |
| 20260507053539 | 35 | 284 | 11.0 | 16.0 | 0.00 | 0.08 | 0.00 | 80 | 1016.1 |
| 20260507053028 | 34 | 263 | 9.0 | 15.0 | 0.00 | 0.08 | 0.00 | 84 | 1015.9 |
| 20260507052527 | 32 | 276 | 6.0 | 9.0 | 0.00 | 0.08 | 0.00 | 85 | 1016.2 |
| 20260507052027 | 32 | 245 | 5.0 | 10.0 | 0.00 | 0.08 | 0.00 | 86 | 1016.3 |
| 20260507051536 | 32 | 236 | 7.0 | 12.0 | 0.00 | 0.08 | 0.00 | 86 | 1016.3 |
| 20260507051016 | 32 | 257 | 8.0 | 13.0 | 0.00 | 0.08 | 0.00 | 86 | 1016.4 |
| 20260507050518 | 32 | 258 | 10.0 | 14.0 | 0.00 | 0.08 | 0.00 | 87 | 1016.3 |
| 20260507050024 | 32 | 226 | 10.0 | 14.0 | 0.00 | 0.08 | 0.00 | 86 | 1016.4 |
| 20260507045545 | 32 | 242 | 9.0 | 14.0 | 0.00 | 0.08 | 0.00 | 86 | 1016.5 |
| 20260507045012 | 32 | 244 | 10.0 | 16.0 | 0.00 | 0.08 | 0.00 | 86 | 1016.5 |
| 20260507044532 | 32 | 238 | 12.0 | 17.0 | 0.00 | 0.08 | 0.00 | 86 | 1016.4 |
| 20260507044015 | 32 | 253 | 11.0 | 17.0 | 0.00 | 0.08 | 0.00 | 85 | 1016.3 |
| 20260507043523 | 32 | 252 | 12.0 | 16.0 | 0.00 | 0.08 | 0.00 | 85 | 1016.4 |
| 20260507043025 | 32 | 250 | 12.0 | 16.0 | 0.00 | 0.08 | 0.00 | 85 | 1016.4 |
| 20260507042533 | 32 | 257 | 11.0 | 16.0 | 0.00 | 0.08 | 0.00 | 84 | 1016.3 |
| 20260507042034 | 32 | 257 | 12.0 | 18.0 | 0.00 | 0.08 | 0.00 | 84 | 1016.4 |
| 20260507041515 | 32 | 238 | 11.0 | 18.0 | 0.00 | 0.08 | 0.00 | 84 | 1016.4 |
| 20260507041023 | 32 | 263 | 13.0 | 18.0 | 0.00 | 0.08 | 0.00 | 84 | 1016.3 |
| 20260507040522 | 32 | 266 | 12.0 | 18.0 | 0.00 | 0.08 | 0.00 | 83 | 1016.5 |
| 20260507040029 | 32 | 238 | 11.0 | 17.0 | 0.00 | 0.08 | 0.00 | 83 | 1016.5 |
| 20260507035530 | 33 | 247 | 11.0 | 17.0 | 0.00 | 0.08 | 0.00 | 82 | 1016.4 |
| 20260507035018 | 33 | 243 | 12.0 | 17.0 | 0.00 | 0.08 | 0.00 | 82 | 1016.6 |
| 20260507034520 | 33 | 250 | 10.0 | 16.0 | 0.00 | 0.08 | 0.00 | 81 | 1016.6 |
| 20260507034020 | 33 | 245 | 11.0 | 16.0 | 0.00 | 0.08 | 0.00 | 81 | 1016.5 |
| 20260507033512 | 33 | 246 | 11.0 | 16.0 | 0.00 | 0.08 | 0.00 | 82 | 1016.5 |
| 20260507033057 | 33 | 250 | 9.0 | 14.0 | 0.00 | 0.08 | 0.00 | 82 | 1016.7 |
| 20260507032518 | 33 | 238 | 10.0 | 15.0 | 0.00 | 0.08 | 0.00 | 82 | 1016.6 |
| 20260507032018 | 33 | 243 | 11.0 | 15.0 | 0.00 | 0.08 | 0.00 | 82 | 1016.6 |
| 20260507031519 | 33 | 245 | 10.0 | 14.0 | 0.00 | 0.08 | 0.00 | 81 | 1016.6 |
| 20260507031027 | 33 | 248 | 10.0 | 14.0 | 0.00 | 0.08 | 0.00 | 81 | 1016.6 |
| 20260507030558 | 33 | 243 | 10.0 | 13.0 | 0.00 | 0.08 | 0.00 | 81 | 1016.6 |
| 20260507030040 | 33 | 247 | 10.0 | 15.0 | 0.00 | 0.08 | 0.00 | 81 | 1016.5 |
| 20260507025527 | 34 | 255 | 10.0 | 15.0 | 0.00 | 0.08 | 0.00 | 81 | 1016.6 |
| 20260507025027 | 33 | 228 | 10.0 | 13.0 | 0.00 | 0.08 | 0.00 | 81 | 1016.5 |
| 20260507024528 | 34 | 254 | 10.0 | 14.0 | 0.00 | 0.08 | 0.00 | 82 | 1016.5 |
| 20260507024037 | 33 | 239 | 10.0 | 14.0 | 0.00 | 0.08 | 0.00 | 81 | 1016.4 |
| 20260507023518 | 33 | 241 | 9.0 | 14.0 | 0.00 | 0.08 | 0.00 | 81 | 1016.4 |
| 20260507023018 | 33 | 242 | 9.0 | 14.0 | 0.00 | 0.08 | 0.00 | 81 | 1016.3 |
| 20260507022526 | 33 | 244 | 9.0 | 14.0 | 0.00 | 0.08 | 0.00 | 81 | 1016.4 |
| 20260507022027 | 33 | 232 | 9.0 | 14.0 | 0.00 | 0.08 | 0.00 | 81 | 1016.5 |
| 20260507021535 | 33 | 250 | 9.0 | 13.0 | 0.00 | 0.08 | 0.00 | 81 | 1016.5 |
| 20260507021018 | 33 | 246 | 10.0 | 13.0 | 0.00 | 0.08 | 0.00 | 80 | 1016.6 |
| 20260507020535 | 34 | 238 | 8.0 | 13.0 | 0.00 | 0.08 | 0.00 | 79 | 1016.5 |
| 20260507020041 | 34 | 253 | 9.0 | 14.0 | 0.00 | 0.08 | 0.00 | 79 | 1016.6 |
| 20260507015528 | 34 | 250 | 10.0 | 14.0 | 0.00 | 0.08 | 0.00 | 79 | 1016.7 |
| 20260507015028 | 34 | 246 | 9.0 | 12.0 | 0.00 | 0.08 | 0.00 | 79 | 1016.6 |
| 20260507014536 | 34 | 251 | 7.0 | 13.0 | 0.00 | 0.08 | 0.00 | 79 | 1016.7 |
| 20260507014017 | 34 | 243 | 9.0 | 13.0 | 0.00 | 0.08 | 0.00 | 79 | 1016.7 |
| 20260507013518 | 34 | 247 | 8.0 | 13.0 | 0.00 | 0.08 | 0.00 | 79 | 1016.9 |
| 20260507013026 | 34 | 244 | 10.0 | 14.0 | 0.00 | 0.08 | 0.00 | 79 | 1016.9 |
| 20260507012535 | 35 | 241 | 10.0 | 14.0 | 0.00 | 0.08 | 0.00 | 79 | 1017.0 |
| 20260507012037 | 34 | 240 | 11.0 | 14.0 | 0.00 | 0.08 | 0.00 | 79 | 1016.9 |
| 20260507011517 | 34 | 236 | 7.0 | 13.0 | 0.00 | 0.08 | 0.00 | 79 | 1017.0 |
| 20260507010526 | 35 | 234 | 9.0 | 13.0 | 0.00 | 0.08 | 0.00 | 79 | 1016.9 |
| 20260507010035 | 35 | 216 | 9.0 | 13.0 | 0.00 | 0.08 | 0.00 | 78 | 1016.9 |
| 20260507005520 | 35 | 232 | 8.0 | 13.0 | 0.00 | 0.08 | 0.00 | 78 | 1016.9 |
| 20260507005049 | 35 | 236 | 8.0 | 13.0 | 0.00 | 0.08 | 0.00 | 78 | 1016.9 |
| 20260507004548 | 35 | 234 | 9.0 | 14.0 | 0.00 | 0.08 | 0.00 | 77 | 1016.9 |
| 20260507004035 | 35 | 243 | 8.0 | 15.0 | 0.00 | 0.08 | 0.00 | 77 | 1016.9 |
| 20260507003517 | 35 | 249 | 9.0 | 14.0 | 0.00 | 0.08 | 0.00 | 77 | 1016.9 |
| 20260507003019 | 35 | 248 | 9.0 | 13.0 | 0.00 | 0.08 | 0.00 | 78 | 1017.0 |
| 20260507002525 | 35 | 257 | 9.0 | 13.0 | 0.00 | 0.08 | 0.00 | 78 | 1017.0 |
| 20260507002027 | 35 | 247 | 8.0 | 14.0 | 0.00 | 0.08 | 0.00 | 78 | 1017.1 |
| 20260507001536 | 35 | 240 | 9.0 | 14.0 | 0.00 | 0.08 | 0.00 | 78 | 1017.0 |
| 20260507001016 | 35 | 247 | 8.0 | 11.0 | 0.00 | 0.08 | 0.00 | 77 | 1017.1 |
| 20260507000523 | 35 | 247 | 8.0 | 11.0 | 0.00 | 0.08 | 0.00 | 78 | 1017.2 |
| 20260507000025 | 35 | 254 | 8.0 | 12.0 | 0.00 | 0.08 | 0.00 | 77 | 1017.2 |
| 20260506235535 | 35 | 256 | 8.0 | 12.0 | 0.00 | 0.08 | 0.00 | 76 | 1017.3 |
| 20260506235014 | 35 | 234 | 9.0 | 12.0 | 0.00 | 0.08 | 0.00 | 76 | 1017.3 |
| 20260506234534 | 35 | 249 | 8.0 | 12.0 | 0.00 | 0.08 | 0.00 | 76 | 1017.3 |
| 20260506234019 | 35 | 245 | 9.0 | 12.0 | 0.00 | 0.08 | 0.00 | 75 | 1017.3 |
| 20260506233517 | 35 | 254 | 8.0 | 13.0 | 0.00 | 0.08 | 0.00 | 75 | 1017.4 |
| 20260506233025 | 35 | 253 | 9.0 | 13.0 | 0.00 | 0.08 | 0.00 | 75 | 1017.4 |
| 20260506232546 | 35 | 254 | 8.0 | 12.0 | 0.00 | 0.08 | 0.00 | 74 | 1017.6 |
| 20260506232033 | 35 | 265 | 9.0 | 12.0 | 0.00 | 0.08 | 0.00 | 74 | 1017.5 |
| 20260506231516 | 35 | 239 | 9.0 | 12.0 | 0.00 | 0.08 | 0.00 | 74 | 1017.6 |
| 20260506231018 | 35 | 279 | 9.0 | 12.0 | 0.00 | 0.08 | 0.00 | 74 | 1017.5 |
| 20260506230527 | 35 | 251 | 8.0 | 11.0 | 0.00 | 0.08 | 0.00 | 74 | 1017.5 |
| 20260506230029 | 35 | 272 | 7.0 | 13.0 | 0.00 | 0.08 | 0.00 | 74 | 1017.4 |
| 20260506225537 | 35 | 257 | 9.0 | 13.0 | 0.00 | 0.12 | 0.00 | 73 | 1017.5 |
| 20260506225018 | 35 | 243 | 8.0 | 12.0 | 0.00 | 0.12 | 0.00 | 74 | 1017.5 |
| 20260506224519 | 35 | 243 | 8.0 | 12.0 | 0.00 | 0.12 | 0.00 | 74 | 1017.5 |
| 20260506224020 | 34 | 251 | 8.0 | 14.0 | 0.00 | 0.12 | 0.00 | 74 | 1017.5 |
| 20260506223549 | 34 | 247 | 9.0 | 14.0 | 0.00 | 0.12 | 0.00 | 73 | 1017.5 |
| 20260506223035 | 34 | 251 | 9.0 | 13.0 | 0.00 | 0.12 | 0.00 | 73 | 1017.5 |
| 20260506222516 | 34 | 239 | 8.0 | 13.0 | 0.00 | 0.12 | 0.00 | 73 | 1017.5 |
| 20260506222034 | 34 | 232 | 8.0 | 12.0 | 0.00 | 0.12 | 0.00 | 74 | 1017.6 |
| 20260506221541 | 34 | 236 | 8.0 | 11.0 | 0.00 | 0.12 | 0.00 | 75 | 1017.6 |
| 20260506221029 | 34 | 272 | 7.0 | 12.0 | 0.00 | 0.12 | 0.00 | 74 | 1017.6 |
| 20260506220555 | 34 | 232 | 8.0 | 12.0 | 0.00 | 0.12 | 0.00 | 75 | 1017.7 |
| 20260506220015 | 34 | 252 | 8.0 | 12.0 | 0.00 | 0.12 | 0.00 | 75 | 1017.9 |
| 20260506215516 | 34 | 240 | 8.0 | 11.0 | 0.00 | 0.17 | 0.00 | 75 | 1017.7 |
| 20260506215024 | 34 | 212 | 9.0 | 11.0 | 0.00 | 0.17 | 0.00 | 74 | 1017.9 |
| 20260506214525 | 34 | 232 | 9.0 | 12.0 | 0.00 | 0.17 | 0.00 | 75 | 1017.9 |
| 20260506214034 | 34 | 239 | 9.0 | 12.0 | 0.00 | 0.17 | 0.00 | 74 | 1018.0 |
| 20260506213514 | 34 | 240 | 9.0 | 13.0 | 0.00 | 0.17 | 0.00 | 74 | 1018.1 |
| 20260506213016 | 34 | 243 | 8.0 | 12.0 | 0.00 | 0.17 | 0.00 | 74 | 1018.2 |
| 20260506212525 | 33 | 236 | 9.0 | 14.0 | 0.00 | 0.17 | 0.00 | 74 | 1018.2 |
| 20260506212026 | 33 | 247 | 9.0 | 14.0 | 0.00 | 0.17 | 0.00 | 74 | 1018.3 |
| 20260506211534 | 33 | 243 | 9.0 | 13.0 | 0.00 | 0.17 | 0.00 | 74 | 1018.5 |
| 20260506211013 | 33 | 239 | 10.0 | 13.0 | 0.00 | 0.17 | 0.00 | 74 | 1018.4 |
| 20260506210515 | 33 | 230 | 10.0 | 13.0 | 0.00 | 0.17 | 0.00 | 72 | 1018.4 |
| 20260506210023 | 33 | 226 | 10.0 | 13.0 | 0.00 | 0.17 | 0.00 | 72 | 1018.5 |
| 20260506205552 | 33 | 234 | 10.0 | 13.0 | 0.00 | 0.24 | 0.00 | 73 | 1018.5 |
| 20260506205050 | 33 | 249 | 9.0 | 13.0 | 0.00 | 0.24 | 0.00 | 73 | 1018.6 |
| 20260506204518 | 33 | 241 | 8.0 | 11.0 | 0.00 | 0.24 | 0.00 | 73 | 1018.6 |
| 20260506204039 | 33 | 234 | 9.0 | 12.0 | 0.00 | 0.24 | 0.00 | 72 | 1018.7 |
| 20260506203524 | 33 | 229 | 7.0 | 12.0 | 0.00 | 0.24 | 0.00 | 73 | 1018.7 |
| 20260506203024 | 33 | 273 | 8.0 | 11.0 | 0.00 | 0.24 | 0.00 | 72 | 1018.8 |
| 20260506202533 | 33 | 229 | 7.0 | 11.0 | 0.00 | 0.24 | 0.00 | 71 | 1018.8 |
| 20260506202015 | 33 | 226 | 9.0 | 11.0 | 0.00 | 0.24 | 0.00 | 71 | 1018.7 |
| 20260506201516 | 33 | 236 | 8.0 | 10.0 | 0.00 | 0.24 | 0.00 | 71 | 1018.9 |
| 20260506201044 | 33 | 223 | 8.0 | 11.0 | 0.00 | 0.24 | 0.00 | 71 | 1019.1 |
| 20260506200551 | 33 | 224 | 7.0 | 11.0 | 0.00 | 0.24 | 0.00 | 70 | 1019.1 |
| 20260506200031 | 33 | 214 | 8.0 | 11.0 | 0.00 | 0.24 | 0.00 | 70 | 1019.1 |
| 20260506195513 | 33 | 230 | 7.0 | 10.0 | 0.00 | 0.33 | 0.24 | 71 | 1019.2 |
| 20260506195023 | 33 | 221 | 7.0 | 9.0 | 0.00 | 0.33 | 0.24 | 71 | 1019.2 |
| 20260506194525 | 33 | 214 | 7.0 | 10.0 | 0.00 | 0.33 | 0.24 | 71 | 1019.2 |
| 20260506194052 | 33 | 234 | 7.0 | 10.0 | 0.00 | 0.33 | 0.24 | 70 | 1019.2 |
| 20260506193540 | 33 | 237 | 7.0 | 9.0 | 0.00 | 0.33 | 0.24 | 69 | 1019.2 |
| 20260506193040 | 33 | 234 | 7.0 | 9.0 | 0.00 | 0.33 | 0.24 | 67 | 1019.2 |
| 20260506192528 | 33 | 241 | 6.0 | 8.0 | 0.00 | 0.33 | 0.24 | 67 | 1019.2 |
| 20260506192029 | 33 | 256 | 6.0 | 8.0 | 0.00 | 0.33 | 0.24 | 66 | 1019.3 |